Location: Asheville, NC
(35.6000°N, 82.5500°W)
Time: 20:03:42
(UTC-04:00)

Vanguard 3 - Pass Details

Date: 17 March 2018
Orbit: 508 x 3264 km, 33.3° (Epoch: 24 June)

Event Time Altitude Azimuth Distance (km) Brightness Sun altitude
Rises 09:09:17 0° 246° (WSW) 6,973 11.4 17.5°
Reaches altitude 10° 09:13:45 10° 245° (WSW) 6,098 11.2 18.4°
Maximum altitude 09:33:50 75° 165° (SSE) 3,142 10.6 22.3°
Drops below altitude 10° 09:49:23 10° 84° (E) 4,906 12.3 25.3°
Sets 09:52:33 0° 82° (E) 5,611 12.4 25.9°
